Location: Dampvalley
(47.9094°N, 6.1967°E)
Time: 12:48:10
(UTC+00:00)

NOAA 19 - Visible Passes

Search period start: 06 December 2021 00:00
Search period end: 16 December 2021 00:00
Orbit: 840 x 861 km, 99.2° (Epoch: 06 December)

Date Brightness Start Highest point End Pass type
(mag) Time Alt. Az. Time Alt. Az. Time Alt. Az.
06 Dec 6.5 16:34:02 10° E 16:37:38 18° NE 16:41:16 10° NNE visible
06 Dec 5.1 18:12:09 10° SSE 18:17:37 85° WSW 18:23:08 10° NNW visible
06 Dec 8.0 19:56:34 10° WSW 19:59:06 13° W 20:01:39 10° WNW visible
07 Dec 7.3 06:30:46 10° NNE 06:35:39 31° E 06:40:31 10° SSE visible
07 Dec 6.7 16:22:59 10° E 16:26:01 15° NE 16:29:03 10° NNE visible
07 Dec 5.0 18:00:22 10° SSE 18:05:49 79° ENE 18:11:19 10° NNW visible
07 Dec 7.7 19:43:40 10° SW 19:47:07 17° W 19:50:35 10° NW visible
08 Dec 7.7 06:19:12 10° NE 06:23:44 25° E 06:28:14 10° SSE visible
08 Dec 6.8 16:12:11 10° ENE 16:14:24 13° NE 16:16:37 10° NNE visible
08 Dec 5.1 17:48:39 10° SSE 17:54:01 64° ENE 17:59:28 10° N visible
08 Dec 7.4 19:31:05 10° SW 19:35:08 21° W 19:39:15 10° NW visible
09 Dec 7.9 06:07:44 10° NE 06:11:47 20° E 06:15:48 10° SE visible
09 Dec 5.3 17:37:00 10° SE 17:42:16 52° ENE 17:47:35 10° N visible
09 Dec 7.1 19:18:40 10° SSW 19:23:12 26° W 19:27:46 10° NW visible
10 Dec 8.1 05:56:26 10° NE 05:59:49 16° E 06:03:10 10° SE visible
10 Dec 5.5 17:25:25 10° SE 17:30:31 42° ENE 17:35:40 10° N visible
10 Dec 6.8 19:06:25 10° SSW 19:11:16 32° W 19:16:11 10° NNW visible
11 Dec 8.3 05:45:26 10° ENE 05:47:49 13° E 05:50:11 10° ESE visible
11 Dec 5.7 17:13:55 10° SE 17:18:48 35° ENE 17:23:43 10° N visible
11 Dec 6.4 18:54:15 10° SSW 18:59:22 40° W 19:04:33 10° NNW visible
12 Dec 6.0 17:02:29 10° ESE 17:07:05 29° ENE 17:11:44 10° N visible
12 Dec 6.0 18:42:12 10° S 18:47:29 50° W 18:52:50 10° NNW visible
13 Dec 6.2 16:51:09 10° ESE 16:55:24 24° ENE 16:59:41 10° N visible
13 Dec 5.6 18:30:13 10° S 18:35:38 63° WSW 18:41:06 10° NNW visible
14 Dec 6.4 16:39:54 10° E 16:43:45 20° NE 16:47:36 10° NNE visible
14 Dec 5.2 18:18:20 10° SSE 18:23:47 78° WSW 18:29:19 10° NNW visible
14 Dec 8.1 20:03:20 10° WSW 20:05:21 12° W 20:07:23 10° WNW visible
15 Dec 7.2 06:36:51 10° NNE 06:41:53 34° E 06:46:53 10° SSE visible
15 Dec 6.6 16:28:48 10° E 16:32:06 17° NE 16:35:25 10° NNE visible
15 Dec 5.1 18:06:30 10° SSE 18:11:58 86° ENE 18:17:31 10° NNW visible
15 Dec 7.8 19:50:13 10° WSW 19:53:21 15° W 19:56:31 10° NW visible
